Weather History for KPNT - January, 2014

Change the Weather History Date:

Saturday, January 4, 2014

  Actual Average Record
Temperature  
Mean Temperature 28 °F -  
Max Temperature 35 °F 31 °F 55 °F (1993)
Min Temperature 21 °F 14 °F -15 °F (1920)
Degree Days  
Heating Degree Days 37    
Moisture  
Dew Point 24 °F    
Average Humidity 78    
Maximum Humidity 100    
Minimum Humidity 64    
Precipitation  
Precipitation 0.00 in - - ()
Sea Level Pressure  
Sea Level Pressure 29.91 in    
Wind  
Wind Speed 18 mph (SSW)    
Max Wind Speed 26 mph    
Max Gust Speed 37 mph    
Visibility 8 miles    
Events Snow    
Averages and records for this station are not official NWS values.
T = Trace of Precipitation, MM = Missing Value Source: NWS Daily Summary

Daily Weather History Graph

Daily Weather History Graph

Search for Another Location

Airport or City:

Trip Planner

Search our weather history database for the weather conditions in past years. The results will help you decide how hot, cold, wet, or windy it might be!

Date:

Astronomy

Jan. 04, 2014 Rise Set
Actual Time 7:19 AM CST 4:39 PM CST
Civil Twilight 6:48 AM CST 5:10 PM CST
Nautical Twilight 6:14 AM CST 5:45 PM CST
Astronomical Twilight 5:40 AM CST 6:18 PM CST
Moon 9:23 AM CST (1/4) 9:01 PM CST (1/4)
Length of Visible Light 10h 22m
Length of Day
9h 20m
Waxing Crescent, 15% of the Moon is Illuminated
Jan 4
Waxing Crescent
Jan 7
First Quarter
Jan 15
Full
Jan 23
Last Quarter
Jan 30
New

Hourly Weather History & Observations

Time (CST) Temp. Windchill Dew Point Humidity Pressure Visibility Wind Dir Wind Speed Gust Speed Precip Events Conditions
12:15 AM 21.2 °F 4.2 °F 15.8 °F 80% 29.94 in 10.0 mi South 25.3 mph 32.2 mph N/A   Clear
12:35 AM 21.2 °F 4.9 °F 15.8 °F 80% 29.93 in 10.0 mi South 23.0 mph 28.8 mph N/A   Clear
12:55 AM 21.2 °F 4.9 °F 15.8 °F 80% 29.92 in 10.0 mi South 23.0 mph 29.9 mph N/A   Clear
1:15 AM 21.2 °F 5.6 °F 15.8 °F 80% 29.93 in 10.0 mi South 20.7 mph 26.5 mph N/A   Clear
1:35 AM 21.2 °F 5.2 °F 15.8 °F 80% 29.92 in 10.0 mi South 21.9 mph 26.5 mph N/A   Clear
1:55 AM 21.2 °F 6.4 °F 15.8 °F 80% 29.92 in 10.0 mi South 18.4 mph 26.5 mph N/A   Clear
2:15 AM 21.2 °F 6.4 °F 15.8 °F 80% 29.92 in 10.0 mi South 18.4 mph 23.0 mph N/A   Clear
2:35 AM 23.0 °F 8.7 °F 15.8 °F 74% 29.92 in 10.0 mi SSW 18.4 mph 24.2 mph N/A   Clear
2:55 AM 23.0 °F 7.6 °F 15.8 °F 74% 29.91 in 10.0 mi South 21.9 mph 27.6 mph N/A   Clear
3:15 AM 23.0 °F 6.9 °F 15.8 °F 74% 29.89 in 10.0 mi South 24.2 mph 32.2 mph N/A   Clear
3:35 AM 24.8 °F 9.3 °F 15.8 °F 69% 29.88 in 10.0 mi South 24.2 mph 33.4 mph N/A   Clear
3:55 AM 24.8 °F 9.6 °F 15.8 °F 69% 29.88 in 10.0 mi SSW 23.0 mph 32.2 mph N/A   Clear
4:15 AM 24.8 °F 9.6 °F 15.8 °F 69% 29.88 in 10.0 mi SSW 23.0 mph 31.1 mph N/A   Clear
4:35 AM 24.8 °F 9.6 °F 15.8 °F 69% 29.88 in 10.0 mi SSW 23.0 mph 29.9 mph N/A   Clear
4:55 AM 24.8 °F 8.7 °F 15.8 °F 69% 29.87 in 10.0 mi SSW 26.5 mph 36.8 mph N/A   Clear
5:15 AM 24.8 °F 8.7 °F 15.8 °F 69% 29.87 in 10.0 mi SSW 26.5 mph 35.7 mph N/A   Clear
5:35 AM 24.8 °F 8.7 °F 15.8 °F 69% 29.86 in 10.0 mi SSW 26.5 mph 31.1 mph N/A   Clear
5:55 AM 24.8 °F 9.3 °F 15.8 °F 69% 29.87 in 10.0 mi SSW 24.2 mph 29.9 mph N/A   Clear
6:15 AM 26.6 °F 12.0 °F 17.6 °F 69% 29.86 in 10.0 mi SSW 23.0 mph 29.9 mph N/A   Clear
6:35 AM 26.6 °F 12.0 °F 17.6 °F 69% 29.86 in 10.0 mi SSW 23.0 mph 29.9 mph N/A   Clear
6:55 AM 26.6 °F 13.1 °F 17.6 °F 69% 29.87 in 10.0 mi SSW 19.6 mph 27.6 mph N/A   Clear
7:15 AM 26.6 °F 13.1 °F 17.6 °F 69% 29.87 in 10.0 mi SSW 19.6 mph 29.9 mph N/A   Clear
7:35 AM 26.6 °F 12.4 °F 17.6 °F 69% 29.87 in 10.0 mi SSW 21.9 mph 27.6 mph N/A   Clear
7:55 AM 26.6 °F 13.1 °F 17.6 °F 69% 29.88 in 10.0 mi SSW 19.6 mph - N/A   Clear
8:15 AM 26.6 °F 13.4 °F 17.6 °F 69% 29.89 in 10.0 mi SSW 18.4 mph 28.8 mph N/A   Clear
8:35 AM 28.4 °F 14.7 °F 17.6 °F 64% 29.90 in 10.0 mi SSW 21.9 mph 25.3 mph N/A   Clear
8:55 AM 28.4 °F 14.1 °F 19.4 °F 69% 29.90 in 10.0 mi SSW 24.2 mph 32.2 mph N/A   Clear
9:15 AM 28.4 °F 15.1 °F 19.4 °F 69% 29.90 in 10.0 mi SSW 20.7 mph 29.9 mph N/A   Clear
9:35 AM 30.2 °F 17.8 °F 21.2 °F 69% 29.91 in 10.0 mi SSW 19.6 mph 28.8 mph N/A   Clear
9:55 AM 30.2 °F 17.1 °F 21.2 °F 69% 29.91 in 10.0 mi SSW 21.9 mph 31.1 mph N/A   Clear
10:15 AM 30.2 °F 17.1 °F 21.2 °F 69% 29.90 in 10.0 mi SSW 21.9 mph 31.1 mph N/A   Clear
10:35 AM 32.0 °F 18.4 °F 21.2 °F 64% 29.90 in 10.0 mi SSW 26.5 mph 31.1 mph N/A   Clear
10:55 AM 32.0 °F 19.2 °F 23.0 °F 69% 29.89 in 10.0 mi SSW 23.0 mph 31.1 mph N/A   Clear
11:15 AM 33.8 °F 21.9 °F 23.0 °F 65% 29.89 in 10.0 mi SSW 21.9 mph 27.6 mph N/A   Clear
11:35 AM 33.8 °F 21.3 °F 24.8 °F 70% 29.88 in 10.0 mi SSW 24.2 mph 28.8 mph N/A   Clear
11:55 AM 33.8 °F 21.9 °F 24.8 °F 70% 29.88 in 10.0 mi SSW 21.9 mph 26.5 mph N/A   Clear
12:15 PM 33.8 °F 21.6 °F 24.8 °F 70% 29.88 in 10.0 mi SW 23.0 mph 29.9 mph N/A   Clear
12:35 PM 33.8 °F 23.5 °F 24.8 °F 70% 29.88 in 10.0 mi SSW 16.1 mph 28.8 mph N/A   Scattered Clouds
12:55 PM 33.8 °F 21.6 °F 24.8 °F 70% 29.87 in 10.0 mi SSW 23.0 mph 28.8 mph N/A   Mostly Cloudy
1:15 PM 33.8 °F 22.8 °F 24.8 °F 70% 29.87 in 10.0 mi SSW 18.4 mph 24.2 mph N/A   Mostly Cloudy
1:35 PM 35.6 °F 26.2 °F 26.6 °F 70% 29.87 in 10.0 mi SSW 15.0 mph 24.2 mph N/A   Mostly Cloudy
1:55 PM 35.6 °F 26.2 °F 26.6 °F 70% 29.87 in 10.0 mi SSW 15.0 mph 20.7 mph N/A   Overcast
2:15 PM 35.6 °F 27.1 °F 26.6 °F 70% 29.87 in 10.0 mi SSW 12.7 mph - N/A   Overcast
2:35 PM 35.6 °F 26.6 °F 26.6 °F 70% 29.88 in 10.0 mi SSW 13.8 mph - N/A   Overcast
2:55 PM 35.6 °F 26.6 °F 26.6 °F 70% 29.89 in 10.0 mi SSW 13.8 mph 18.4 mph N/A   Overcast
3:15 PM 35.6 °F 26.6 °F 26.6 °F 70% 29.90 in 10.0 mi SSW 13.8 mph - N/A   Overcast
3:35 PM 35.6 °F 27.1 °F 26.6 °F 70% 29.91 in 10.0 mi SSW 12.7 mph - N/A   Overcast
3:55 PM 35.6 °F 27.5 °F 28.4 °F 75% 29.92 in 10.0 mi SW 11.5 mph - N/A   Overcast
4:15 PM 35.6 °F 28.0 °F 28.4 °F 75% 29.93 in 10.0 mi SSW 10.4 mph - N/A   Overcast
4:35 PM 35.6 °F 29.9 °F 28.4 °F 75% 29.93 in 10.0 mi SW 6.9 mph - N/A   Overcast
4:55 PM 35.6 °F 30.7 °F 28.4 °F 75% 29.93 in 10.0 mi SW 5.8 mph - N/A   Overcast
5:15 PM 35.6 °F 31.7 °F 28.4 °F 75% 29.94 in 10.0 mi SW 4.6 mph - N/A   Overcast
5:35 PM 35.6 °F 32.8 °F 28.4 °F 75% 29.94 in 10.0 mi SSW 3.5 mph - N/A   Overcast
5:55 PM 33.8 °F - 30.2 °F 87% 29.94 in 10.0 mi Calm Calm - N/A   Unknown
6:15 PM 33.8 °F 30.8 °F 30.2 °F 87% 29.94 in 10.0 mi NNW 3.5 mph - N/A   Unknown
6:35 PM 33.8 °F - 30.2 °F 87% 29.94 in 10.0 mi Calm Calm - N/A Snow Light Snow
6:55 PM 33.8 °F - 30.2 °F 87% 29.95 in 10.0 mi Calm Calm - N/A   Unknown
7:15 PM 33.8 °F - 30.2 °F 87% 29.95 in 5.0 mi Calm Calm - N/A Snow Light Snow
7:35 PM 33.8 °F 29.6 °F 30.2 °F 87% 29.96 in 3.0 mi North 4.6 mph - N/A Snow Light Snow
7:55 PM 33.8 °F 30.8 °F 32.0 °F 93% 29.97 in 1.5 mi NNW 3.5 mph - N/A Snow Light Snow
8:15 PM 32.0 °F - 32.0 °F 100% 29.98 in 1.2 mi Calm Calm - N/A Snow Light Snow
8:35 PM 32.0 °F - 32.0 °F 100% 29.98 in 1.2 mi Calm Calm - N/A Snow Light Snow
8:55 PM 32.0 °F - 32.0 °F 100% 29.97 in 1.2 mi Calm Calm - N/A Snow Light Snow
9:15 PM 32.0 °F 28.7 °F 32.0 °F 100% 29.97 in 1.2 mi NNW 3.5 mph - N/A Snow Light Snow
9:35 PM 32.0 °F - 32.0 °F 100% 29.97 in 1.2 mi Calm Calm - N/A Snow Light Snow
9:55 PM 32.0 °F - 32.0 °F 100% 29.97 in 1.5 mi Calm Calm - N/A Snow Light Snow
10:15 PM 32.0 °F - 32.0 °F 100% 29.98 in 1.5 mi Calm Calm - N/A Snow Light Snow
10:35 PM 32.0 °F - 32.0 °F 100% 29.97 in 1.5 mi Calm Calm - N/A Snow Light Snow
10:55 PM 32.0 °F - 32.0 °F 100% 29.98 in 1.8 mi Calm Calm - N/A Snow Light Snow
11:15 PM 32.0 °F - 32.0 °F 100% 29.97 in 1.8 mi Calm Calm - N/A Snow Light Snow
11:35 PM 30.2 °F - 30.2 °F 100% 29.98 in 2.0 mi Calm Calm - N/A Snow Snow
11:55 PM 30.2 °F - 30.2 °F 100% 29.98 in 2.5 mi Calm Calm - N/A Snow Light Snow